User: anonymous   Login
Location: Squamish
(49.7000°N, 123.1500°W)
Time: 14:21:09
(UTC-08:00)
Language:

NOAA 19 - Orbit

View from above orbital plane
View from above orbital plane
View from above satellite
View from above satellite

Ground track
Ground track

The orbit data is extracted from the following two-line orbital elements,

1 33591U 09005A   14354.52269353  .00000430  00000-0  26010-3 0  5048
2 33591 098.9689 299.2002 0013275 316.8589 093.7501 14.11836974302288
Epoch (UTC): 20 December 2014 12:32:40
Eccentricity: 0.0013275
inclination: 98.9689°
perigee height: 843 km
apogee height: 862 km
right ascension of ascending node: 299.2002°
argument of perigee: 316.8589°
revolutions per day: 14.11836974
mean anomaly at epoch: 93.7501°
orbit number at epoch: 30228

The dashed part of the orbit path shows where the satellite is in the earth's shadow,  

DLR